User: anonymous   Login
Location: Unspecified
(0.0000°N, 0.0000°E)
Time: 22:17:51
(UTC+02:00)
Language:

H-2A R/B - Orbit

View from above orbital plane
View from above orbital plane
View from above satellite
View from above satellite

Ground track
Ground track

The orbit data is extracted from the following two-line orbital elements,

1 28932U 06002B   15213.56112988  .00001455  00000-0  14529-3 0  9993
2 28932 098.2469 097.4427 0093274 036.3997 024.2701 14.90070529515654
Epoch (UTC): 01 August 2015 13:28:01
Eccentricity: 0.0093274
inclination: 98.2469°
perigee height: 532 km
apogee height: 663 km
right ascension of ascending node: 97.4427°
argument of perigee: 36.3997°
revolutions per day: 14.90070529
mean anomaly at epoch: 24.2701°
orbit number at epoch: 51565

The dashed part of the orbit path shows where the satellite is in the earth's shadow,  

DLR